Regional Weather Roundup
Issued by NWS

Home | Current Version | Previous Version | Text Only | Print | Product List | Glossary On
Versions: 1 2 3 4 5 6 7 8 9 10 11 12 13 14 15 16 17 18 19 20 21 22 23 24 25 26 27 28 29 30 31 32 33 34 35 36 37 38 39 40 41 42 43 44 45 46 47 48 49 50
000
ASUS43 KTOP 251059
RWRKS

WEATHER ROUNDUP FOR KANSAS
NATIONAL WEATHER SERVICE GOODLAND KS
600 AM CDT MON MAY 25 2015

NOTE:  "FAIR" INDICATES FEW OR NO CLOUDS BELOW 12,000 FEET WITH NO
SIGNIFICANT WEATHER AND/OR OBSTRUCTIONS TO VISIBILITY.

KSZ001>006-013>018-027>032-041>047-251200-
NORTHWEST KANSAS

CITY           SKY/WX    TMP DP  RH WIND       PRES   REMARKS
GOODLAND       CLEAR     47  45  93 W10       29.82R
HAYS           CLOUDY    55  48  76 S6        29.78R
HILL CITY      CLOUDY    51  49  92 CALM      29.79S
RUSSELL        CLOUDY    56  54  93 S7        29.76R
$$

KSZ061>065-074>080-084>089-251200-
SOUTHWEST KANSAS

CITY           SKY/WX    TMP DP  RH WIND       PRES   REMARKS
DODGE CITY     CLEAR     54  51  90 SE14      29.79R
ELKHART          N/A     50  45  83 W5          N/A
GARDEN CITY    CLOUDY    55  55 100 SW5       29.78R
GREAT BEND     MOCLDY    55  52  88 SE10      29.78S
LIBERAL        CLEAR     52  46  82 W5        29.81R
$$

KSZ066>073-081>083-090>101-251200-
SOUTHEAST KANSAS

CITY           SKY/WX    TMP DP  RH WIND       PRES   REMARKS
CHANUTE        CLOUDY    62  61  96 S9        29.89R FOG
COFFEYVILLE    FOG       63  63 100 S7        29.89R VSB 1
HUTCHINSON     CLOUDY    57  54  89 SE12      29.83F
NEWTON         CLOUDY    57  52  82 SE7       29.88F
PARSONS        CLOUDY    63  63 100 S5        29.90R FOG
WICHITA INTL   CLOUDY    59  56  89 NE5       29.87F
WICHITA JABRA  LGT RAIN  57  56  96 NE7       29.88F
WICHITA MCCONL LGT RAIN  57  57 100 N9        29.88R
WINFIELD       CLOUDY    63  63 100 SE10      29.85R FOG
$$

KSZ007>012-019>026-033>040-048>060-102>105-251200-
NORTHEAST KANSAS

CITY           SKY/WX    TMP DP  RH WIND       PRES   REMARKS
CONCORDIA      LGT RAIN  57  55  93 E10       29.75F
EMPORIA        CLOUDY    59  59 100 S13G20    29.84R
LAWRENCE       MOCLDY    61  58  90 S7        29.88R
MANHATTAN      LGT RAIN  60  58  92 SW8       29.90R
OLATHE IND     MOCLDY    60  59  96 SE7       29.88F
OLATHE EXE     MOCLDY    60  59  96 S7        29.88S
SALINA         CLOUDY    59  56  89 SE7       29.80F
TOPEKA BILLARD MOCLDY    61  59  93 S3        29.87R
TOPEKA FORBES  PTCLDY    61  58  90 S6        29.86R
$$


USA.gov is the U.S. government's official web portal to all federal, state and local government web resources and services.